Date String (YYYY-MM-DD hh:mm:ss) UTC,Instrument flags,Ambient pressure (hPa),Sample flow (lpm),Bypass flow (lpm),Sample temperature (°C),Ambient temperature (°C),ASC tube jacket temperature (°C),LED temperature (°C),Box temperature (°C),Sample RH (%),Span deviation,Mass concentration (μg/m³),Mass concentration (μg/m³),Mass concentration (μg/m³)
DateTimeUTC,F1_M11,P_M11,Q1_M11,Q2_M11,T1_M11,T2_M11,T3_M11,T4_M11,T5_M11,U1_M11,ZSPAN_M11,X0_M11,X2_M11,X1_M11
2021-11-22 18:00:00,,0831.6,4.99,0.00,26.8,26.1,00.0,35.6,28.7,08.9,0000.0,0008.53,0003.65,0003.14
2021-11-22 18:01:00,,0831.6,5.00,0.00,26.9,26.1,00.0,35.7,28.7,08.7,0000.0,0008.25,0003.64,0003.13
2021-11-22 18:02:00,,0831.5,5.01,0.00,26.9,26.2,00.0,35.7,28.8,08.7,0000.0,0007.98,0003.58,0003.11
2021-11-22 18:03:00,,0831.5,5.00,0.00,26.9,26.2,00.0,35.7,28.8,08.7,0000.0,0008.56,0003.56,0003.07
2021-11-22 18:04:00,,0831.6,5.00,0.00,26.9,26.2,00.0,35.7,28.8,08.6,0000.0,0008.27,0003.53,0003.04
2021-11-22 18:05:00,,0831.5,5.01,0.00,26.9,26.2,00.0,35.8,28.8,08.5,0000.0,0008.26,0003.51,0003.01
2021-11-22 18:06:00,,0831.4,5.00,0.00,27.0,26.2,00.0,35.8,28.8,08.7,0000.0,0008.06,0003.48,0002.98
2021-11-22 18:07:00,,0831.5,4.99,0.00,27.0,26.3,00.0,35.8,28.9,08.6,0000.0,0007.83,0003.45,0002.96
2021-11-22 18:08:00,,0831.4,5.00,0.00,27.0,26.3,00.0,35.8,28.9,08.4,0000.0,0007.75,0003.44,0002.94
2021-11-22 18:09:00,,0831.5,5.00,0.00,27.0,26.3,00.0,35.8,28.9,08.3,0000.0,0007.57,0003.43,0002.90
2021-11-22 18:10:00,,0831.4,5.00,0.00,27.1,26.3,00.0,35.9,28.9,08.2,0000.0,0007.86,0003.42,0002.86
2021-11-22 18:11:00,,0831.5,4.99,0.00,27.1,26.4,00.0,35.9,29.0,08.2,0000.0,0007.97,0003.37,0002.81
2021-11-22 18:12:00,,0831.4,5.01,0.00,27.1,26.4,00.0,35.9,29.0,08.3,0000.0,0007.89,0003.32,0002.77
2021-11-22 18:13:00,,0831.4,5.00,0.00,27.1,26.4,00.0,35.9,29.0,08.3,0000.0,0007.92,0003.29,0002.74
2021-11-22 18:14:00,,0831.3,5.00,0.00,27.1,26.4,00.0,36.0,29.0,08.3,0000.0,0007.35,0003.28,0002.72
2021-11-22 18:15:00,,0831.3,4.99,0.00,27.1,26.4,00.0,36.0,29.0,08.2,0000.0,0007.21,0003.27,0002.69
2021-11-22 18:16:00,,0831.2,5.00,0.00,27.2,26.5,00.0,36.0,29.0,08.0,0000.0,0007.01,0003.26,0002.66
2021-11-22 18:17:00,,0831.2,5.01,0.00,27.2,26.5,00.0,36.0,29.1,08.0,0000.0,0007.42,0003.24,0002.63
2021-11-22 18:18:00,,0831.2,5.00,0.00,27.2,26.5,00.0,36.0,29.1,08.1,0000.0,0008.60,0003.21,0002.58
2021-11-22 18:19:00,,0831.2,5.00,0.00,27.2,26.5,00.0,36.1,29.1,08.4,0000.0,0009.07,0003.23,0002.55
2021-11-22 18:20:00,,0831.2,4.99,0.00,27.3,26.6,00.0,36.1,29.2,08.4,0000.0,0009.34,0003.22,0002.55
2021-11-22 18:21:00,,0831.2,5.02,0.00,27.3,26.6,00.0,36.1,29.2,08.1,0000.0,0008.99,0003.21,0002.54
2021-11-22 18:22:00,,0831.1,4.98,0.00,27.3,26.6,00.0,36.1,29.2,08.2,0000.0,0008.84,0003.21,0002.54
2021-11-22 18:23:00,,0831.1,5.02,0.00,27.3,26.6,00.0,36.1,29.2,08.4,0000.0,0008.80,0003.19,0002.53
2021-11-22 18:24:00,,0831.1,4.98,0.00,27.3,26.6,00.0,36.2,29.2,08.3,0000.0,0008.74,0003.19,0002.53
2021-11-22 18:25:00,,0831.0,5.01,0.00,27.4,26.6,00.0,36.2,29.2,08.2,0000.0,0008.51,0003.15,0002.49
2021-11-22 18:26:00,,0831.0,5.00,0.00,27.4,26.6,00.0,36.2,29.3,08.0,0000.0,0008.52,0003.12,0002.45
2021-11-22 18:27:00,,0831.0,5.00,0.00,27.4,26.7,00.0,36.2,29.3,07.8,0000.0,0008.46,0003.06,0002.41
2021-11-22 18:28:00,,0831.0,5.01,0.00,27.4,26.7,00.0,36.2,29.3,07.6,0000.0,0008.08,0003.00,0002.36
2021-11-22 18:29:00,,0831.0,4.99,0.00,27.4,26.7,00.0,36.3,29.3,07.8,0000.0,0006.36,0002.96,0002.32
2021-11-22 18:30:00,,0831.0,4.99,0.00,27.5,26.8,00.0,36.3,29.4,07.7,0000.0,0005.66,0002.89,0002.27
2021-11-22 18:31:00,,0831.0,4.99,0.00,27.5,26.8,00.0,36.3,29.4,08.3,0000.0,0006.59,0002.83,0002.24
2021-11-22 18:32:00,,0831.0,5.01,0.00,27.5,26.8,00.0,36.3,29.4,08.2,0000.0,0006.95,0002.89,0002.23
2021-11-22 18:33:00,,0831.0,4.99,0.00,27.5,26.8,00.0,36.4,29.4,08.1,0000.0,0007.76,0002.89,0002.22
2021-11-22 18:34:00,,0831.0,5.00,0.00,27.5,26.8,00.0,36.4,29.4,08.3,0000.0,0007.96,0002.94,0002.21
2021-11-22 18:35:00,,0831.0,5.00,0.00,27.6,26.8,00.0,36.4,29.4,08.3,0000.0,0008.10,0002.94,0002.19
2021-11-22 18:36:00,,0831.0,5.01,0.00,27.6,26.9,00.0,36.4,29.5,08.4,0000.0,0008.16,0002.96,0002.19
2021-11-22 18:37:00,,0831.0,5.00,0.00,27.6,26.9,00.0,36.4,29.5,08.3,0000.0,0008.17,0003.01,0002.21
2021-11-22 18:38:00,,0831.0,4.99,0.00,27.6,26.9,00.0,36.5,29.5,08.3,0000.0,0008.24,0003.06,0002.23
2021-11-22 18:39:00,,0830.9,5.01,0.00,27.6,26.9,00.0,36.5,29.5,08.2,0000.0,0008.35,0003.13,0002.28
2021-11-22 18:40:00,,0830.9,5.00,0.00,27.7,26.9,00.0,36.5,29.5,08.2,0000.0,0008.44,0003.18,0002.33
2021-11-22 18:41:00,,0830.8,5.00,0.00,27.7,26.9,00.0,36.5,29.5,08.3,0000.0,0008.68,0003.18,0002.37
2021-11-22 18:42:00,,0830.8,5.01,0.00,27.7,27.0,00.0,36.5,29.6,08.2,0000.0,0008.12,0003.18,0002.40
2021-11-22 18:43:00,,0830.8,4.99,0.00,27.7,27.0,00.0,36.6,29.6,08.2,0000.0,0008.04,0003.14,0002.39
2021-11-22 18:44:00,,0830.7,5.00,0.00,27.7,27.0,00.0,36.6,29.6,08.3,0000.0,0007.67,0003.16,0002.39
2021-11-22 18:45:00,,0830.6,5.01,0.00,27.8,27.0,00.0,36.6,29.6,08.2,0000.0,0007.74,0003.14,0002.40
2021-11-22 18:46:00,,0830.6,4.98,0.00,27.8,27.1,00.0,36.6,29.6,08.1,0000.0,0007.63,0003.11,0002.39
2021-11-22 18:47:00,,0830.6,5.00,0.00,27.8,27.1,00.0,36.7,29.7,08.1,0000.0,0007.70,0003.09,0002.38
2021-11-22 18:48:00,,0830.6,5.02,0.00,27.8,27.1,00.0,36.7,29.7,08.0,0000.0,0008.03,0003.04,0002.36
2021-11-22 18:49:00,,0830.5,5.01,0.00,27.8,27.1,00.0,36.7,29.7,07.9,0000.0,0007.97,0003.04,0002.34
2021-11-22 18:50:00,,0830.4,5.00,0.00,27.9,27.2,00.0,36.7,29.7,07.9,0000.0,0007.83,0002.95,0002.31
2021-11-22 18:51:00,,0830.4,5.00,0.00,27.9,27.2,00.0,36.7,29.8,07.6,0000.0,0007.71,0002.85,0002.26
2021-11-22 18:52:00,,0830.4,5.00,0.00,27.9,27.2,00.0,36.8,29.8,07.2,0000.0,0007.43,0002.77,0002.19
2021-11-22 18:53:00,,0830.5,4.99,0.00,27.9,27.2,00.0,36.8,29.8,07.3,0000.0,0007.21,0002.73,0002.12
2021-11-22 18:54:00,,0830.5,5.01,0.00,28.0,27.3,00.0,36.8,29.8,07.3,0000.0,0006.45,0002.66,0002.05
2021-11-22 18:55:00,,0830.4,5.01,0.00,28.0,27.3,00.0,36.8,29.9,07.0,0000.0,0005.97,0002.57,0001.99
2021-11-22 18:56:00,,0830.3,5.00,0.00,28.0,27.3,00.0,36.8,29.9,07.0,0000.0,0005.89,0002.44,0001.90
2021-11-22 18:57:00,,0830.3,5.00,0.00,28.0,27.3,00.0,36.9,29.9,07.0,0000.0,0006.15,0002.42,0001.83
2021-11-22 18:58:00,,0830.2,5.00,0.00,28.1,27.4,00.0,36.9,29.9,06.8,0000.0,0006.23,0002.38,0001.75
2021-11-22 18:59:00,,0830.2,4.99,0.00,28.1,27.4,00.0,36.9,30.0,06.9,0000.0,0005.85,0002.36,0001.68
